Home   Weather   Fairfield Farms   Past weeks
Flag for USA

Past Weather in Fairfield Farms, Delaware, USA — Yesterday and Last 2 Weeks

Now
28 °F

Clear.


Feels Like: 20 °F
Forecast: 37 / 26 °F
Wind: 9 mph from Northwest

Location: Dover Air Force Base

Current Time: Dec 12, 2019 at 4:02:52 am

Latest Report: Dec 12, 2019 at 2:56 am


Visibility: 10 mi

Pressure: 30.63 "Hg

Humidity: 60%

Dew Point: 16 °F

Location of Fairfield FarmsLocation

Past Weather in Fairfield Farms — Graph

°F

Fairfield Farms Temperature Yesterday

Maximum temperature yesterday: 41 °F (at 12:21 am)
Minimum temperature yesterday: 32 °F (at 5:04 am)
Average temperature yesterday: 35 °F

High & Low Weather Summary for the Past Weeks

 TemperatureHumidityPressure
High64 °F (Dec 10, 1:04 pm)100% (Dec 1, 11:06 am)30.63 "Hg (Dec 1, 11:06 am)
Low27 °F (Dec 7, 11:56 pm)35% (Dec 3, 12:56 pm)29.42 "Hg (Dec 1, 5:56 pm)
Average43 °F74%29.96 "Hg
* Reported Nov 27 5:56 am — Dec 12 2:56 am, Fairfield Farms. Weather by CustomWeather, © 2019

Note: Actual official high and low records may vary slightly from our data, if they occured in-between our weather recording intervals... More about our weather records

Fairfield Farms Weather History for the Previous 24 Hours

Scroll right to see more
 ConditionsComfort  
Time TempWeatherWind HumidityBarometerVisibility
2:56 am
Thu, Dec 12
28 °FClear.9 mph60%30.63 "Hg10 mi
1:56 am29 °FClear.5 mph57%30.61 "Hg10 mi
12:56 am31 °FClear.6 mph53%30.58 "Hg10 mi
11:56 pm
Wed, Dec 11
32 °FClear.8 mph48%30.57 "Hg10 mi
10:56 pm33 °FClear.8 mph49%30.55 "Hg10 mi
9:56 pm33 °FClear.12 mph48%30.52 "Hg10 mi
8:56 pm34 °FClear.10 mph46%30.49 "Hg10 mi
7:56 pm35 °FClear.12 mph49%30.46 "Hg10 mi
6:56 pm33 °FClear.7 mph57%30.44 "Hg10 mi
5:56 pm35 °FClear.6 mph54%30.43 "Hg10 mi
4:56 pm36 °FClear.7 mph49%30.41 "Hg10 mi
3:56 pm38 °FSunny.9 mph47%30.37 "Hg10 mi
2:56 pm40 °FSunny.10 mph45%30.33 "Hg10 mi
1:56 pm40 °FPartly sunny.10 mph53%30.32 "Hg10 mi
12:56 pm38 °FSunny.8 mph62%30.33 "Hg10 mi
11:56 am39 °FSunny.10 mph62%30.32 "Hg10 mi
10:56 am37 °FOvercast.10 mph74%30.35 "Hg10 mi
9:56 am35 °FOvercast.10 mph90%30.36 "Hg10 mi
8:58 am34 °FPartly sunny.7 mph93%30.34 "Hg10 mi
8:56 am34 °FLight rain. Partly sunny.8 mph94%30.34 "Hg10 mi
8:16 am34 °FPassing clouds.6 mph93%30.33 "Hg10 mi
7:56 am34 °FPartly sunny.7 mph95%30.32 "Hg10 mi
7:34 am34 °FLight snow. Passing clouds.6 mph93%30.31 "Hg10 mi
7:16 am34 °FLight snow. Scattered clouds.7 mph93%30.32 "Hg8 mi
7:06 am34 °FLight snow. Passing clouds.7 mph93%30.31 "Hg10 mi
6:56 am33 °FLight snow. Passing clouds.8 mph95%30.30 "Hg7 mi
6:14 am34 °FMostly cloudy.10 mph93%30.28 "Hg10 mi
5:56 am33 °FLight snow. Fog.6 mph95%30.28 "Hg5 mi
5:30 am32 °FLight snow. Ice fog.8 mph100%30.23 "Hg2 mi
5:12 am32 °FLight snow. Ice fog.5 mph100%30.24 "Hg1 mi
5:04 am32 °FLight snow. Ice fog.5 mph100%30.23 "Hg2 mi
4:56 am33 °FLight snow. Fog.5 mph94%30.21 "Hg3 mi
4:06 am34 °FLight snow. Fog.7 mph93%30.22 "Hg5 mi
Weather by CustomWeather, © 2019

See weather overview

Advertising